When you browse on this site, cookies collect data to enhance your experience and personalize the content and advertising you see.
Visit our Privacy Policy to learn more. By continuing to use the site, you agree to this use of cookies and data.
  • In Slovakia
  • List of Countries
  • For 7 days
  • Water Temperature
  • Satellite Maps
  • Weather Map
  • Weather Widgets
  • user-avatar
    Login

    Hourly Weather Olympia

    Today, 20 January, Sunday

    Time Temperature Precipitation Wind Pressure Humidity
    00:00 +8°C° 0.7 mm 5 mps 761 mmHg 86%
    01:00 +8°C° 0 mm 5 mps 761 mmHg 88%
    02:00 +8°C° 0.7 mm 5 mps 760 mmHg 87%
    03:00 +8°C° 0.7 mm 5 mps 760 mmHg 86%
    04:00 +8°C° 0.7 mm 4 mps 760 mmHg 86%
    05:00 +8°C° 0.3 mm 4 mps 760 mmHg 85%
    06:00 +8°C° 0.3 mm 4 mps 760 mmHg 85%
    07:00 +8°C° 0.3 mm 4 mps 760 mmHg 84%
    08:00 +10°C° 0.2 mm 4 mps 760 mmHg 79%
    09:00 +12°C° 0.2 mm 3 mps 760 mmHg 73%
    10:00 +14°C° 0.2 mm 3 mps 760 mmHg 68%
    11:00 +14°C° 0.9 mm 3 mps 760 mmHg 67%
    12:00 +16°C° 0.9 mm 3 mps 759 mmHg 66%
    13:00 +16°C° 0.9 mm 3 mps 759 mmHg 65%
    14:00 +14°C° 1 mm 3 mps 759 mmHg 69%
    15:00 +15°C° 1 mm 2 mps 759 mmHg 72%
    16:00 +14°C° 1 mm 2 mps 759 mmHg 76%
    17:00 +12°C° 1 mm 3 mps 759 mmHg 79%
    18:00 +11°C° 1 mm 3 mps 759 mmHg 81%
    19:00 +10°C° 1 mm 3 mps 759 mmHg 84%
    20:00 +10°C° 0.5 mm 3 mps 759 mmHg 83%
    21:00 +10°C° 0.5 mm 3 mps 759 mmHg 83%
    22:00 +9°C° 0.5 mm 3 mps 759 mmHg 83%
    23:00 +9°C° 0 mm 3 mps 759 mmHg 82%

    Tomorrow, 21 January, Monday

    Time Temperature Precipitation Wind Pressure Humidity
    00:00 +9°C° 0 mm 2 mps 760 mmHg 81%
    01:00 +9°C° 0 mm 2 mps 760 mmHg 80%
    02:00 +9°C° 0 mm 2 mps 760 mmHg 80%
    03:00 +8°C° 0 mm 2 mps 759 mmHg 79%
    04:00 +8°C° 0 mm 2 mps 759 mmHg 78%
    05:00 +8°C° 0 mm 2 mps 760 mmHg 77%
    06:00 +8°C° 0 mm 2 mps 760 mmHg 76%
    07:00 +8°C° 0 mm 2 mps 760 mmHg 76%
    08:00 +10°C° 0 mm 2 mps 760 mmHg 71%
    09:00 +13°C° 0 mm 2 mps 760 mmHg 66%
    10:00 +15°C° 0 mm 2 mps 761 mmHg 61%
    11:00 +15°C° 0 mm 2 mps 760 mmHg 62%
    12:00 +16°C° 0 mm 3 mps 760 mmHg 62%
    13:00 +16°C° 0 mm 3 mps 760 mmHg 62%
    14:00 +16°C° 0.3 mm 3 mps 760 mmHg 68%
    15:00 +14°C° 0.3 mm 3 mps 760 mmHg 73%
    16:00 +13°C° 0.3 mm 3 mps 760 mmHg 79%
    17:00 +12°C° 0.5 mm 3 mps 760 mmHg 81%
    18:00 +12°C° 0.5 mm 2 mps 761 mmHg 84%
    19:00 +10°C° 0.5 mm 2 mps 761 mmHg 87%
    20:00 +10°C° 0.3 mm 3 mps 761 mmHg 87%
    21:00 +10°C° 0.3 mm 3 mps 761 mmHg 88%
    22:00 +9°C° 0.3 mm 3 mps 761 mmHg 88%
    23:00 +9°C° 0.2 mm 3 mps 761 mmHg 87%

    Day after tomorrow, 22 January, Tuesday

    Time Temperature Precipitation Wind Pressure Humidity
    00:00 +8°C° 0.2 mm 4 mps 761 mmHg 86%
    01:00 +8°C° 0.2 mm 4 mps 761 mmHg 85%
    02:00 +8°C° 0.5 mm 4 mps 760 mmHg 84%
    03:00 +8°C° 0.5 mm 4 mps 760 mmHg 83%
    04:00 +10°C° 0.5 mm 4 mps 760 mmHg 83%
    05:00 +10°C° 0.2 mm 4 mps 760 mmHg 82%
    06:00 +9°C° 0.2 mm 5 mps 760 mmHg 81%
    07:00 +9°C° 0.2 mm 5 mps 760 mmHg 81%
    08:00 +10°C° 0 mm 5 mps 759 mmHg 76%
    09:00 +11°C° 0 mm 6 mps 759 mmHg 72%
    10:00 +13°C° 0 mm 6 mps 759 mmHg 67%
    11:00 +14°C° 0.1 mm 7 mps 758 mmHg 67%
    12:00 +14°C° 0.1 mm 7 mps 757 mmHg 67%
    13:00 +15°C° 0.1 mm 8 mps 757 mmHg 67%
    14:00 +13°C° 0.6 mm 8 mps 756 mmHg 71%
    15:00 +13°C° 0.6 mm 8 mps 756 mmHg 74%
    16:00 +12°C° 0.6 mm 8 mps 755 mmHg 77%
    17:00 +11°C° 0.9 mm 7 mps 755 mmHg 81%
    18:00 +10°C° 0.9 mm 7 mps 755 mmHg 84%
    19:00 +9°C° 0.9 mm 7 mps 755 mmHg 88%
    20:00 +9°C° 1.2 mm 7 mps 755 mmHg 89%
    21:00 +9°C° 1.2 mm 7 mps 755 mmHg 89%
    22:00 +9°C° 1.2 mm 7 mps 755 mmHg 90%
    23:00 +10°C° 1 mm 7 mps 754 mmHg 89%

    23 January, Wednesday

    Time Temperature Precipitation Wind Pressure Humidity
    00:00 +10°C° 1 mm 8 mps 754 mmHg 88%
    01:00 +10°C° 1 mm 8 mps 754 mmHg 87%
    02:00 +10°C° 0.9 mm 9 mps 754 mmHg 86%
    03:00 +10°C° 0.9 mm 9 mps 753 mmHg 86%
    04:00 +10°C° 0.9 mm 9 mps 753 mmHg 85%
    05:00 +10°C° 0.8 mm 9 mps 753 mmHg 86%
    06:00 +10°C° 0.8 mm 9 mps 753 mmHg 86%
    07:00 +10°C° 0.8 mm 9 mps 753 mmHg 86%
    08:00 +10°C° 1.2 mm 8 mps 754 mmHg 88%
    09:00 +10°C° 1.2 mm 8 mps 754 mmHg 89%
    10:00 +10°C° 1.2 mm 7 mps 754 mmHg 91%
    11:00 +10°C° 3.6 mm 6 mps 753 mmHg 92%
    12:00 +10°C° 3.6 mm 5 mps 752 mmHg 93%
    13:00 +10°C° 3.6 mm 4 mps 752 mmHg 94%
    14:00 +10°C° 7.1 mm 3 mps 751 mmHg 95%
    15:00 +9°C° 7.1 mm 2 mps 751 mmHg 97%
    16:00 +9°C° 7.1 mm 2 mps 751 mmHg 98%
    17:00 +9°C° 5.1 mm 2 mps 750 mmHg 97%
    18:00 +9°C° 5.1 mm 3 mps 750 mmHg 95%
    19:00 +9°C° 5.1 mm 3 mps 750 mmHg 94%
    20:00 +8°C° 0.9 mm 4 mps 750 mmHg 91%
    21:00 +9°C° 0.9 mm 5 mps 749 mmHg 89%
    22:00 +9°C° 0.9 mm 5 mps 749 mmHg 86%
    23:00 +9°C° 0.6 mm 6 mps 748 mmHg 85%

    24 January, Thursday

    Time Temperature Precipitation Wind Pressure Humidity
    00:00 +9°C° 0.6 mm 7 mps 748 mmHg 85%
    01:00 +7°C° 0.6 mm 8 mps 747 mmHg 84%
    02:00 +8°C° 0.7 mm 7 mps 746 mmHg 84%
    03:00 +8°C° 0.7 mm 7 mps 746 mmHg 85%
    04:00 +8°C° 0.7 mm 7 mps 745 mmHg 85%
    05:00 +8°C° 2.1 mm 6 mps 745 mmHg 88%
    06:00 +8°C° 2.1 mm 6 mps 745 mmHg 91%
    07:00 +8°C° 2.1 mm 5 mps 744 mmHg 94%
    08:00 +9°C° 0.9 mm 6 mps 744 mmHg 90%
    09:00 +10°C° 0.9 mm 7 mps 744 mmHg 87%
    10:00 +10°C° 0.9 mm 8 mps 744 mmHg 83%
    11:00 +11°C° 0.7 mm 8 mps 744 mmHg 80%
    12:00 +11°C° 0.7 mm 8 mps 744 mmHg 77%
    13:00 +11°C° 0.7 mm 8 mps 744 mmHg 74%
    14:00 +11°C° 0.7 mm 8 mps 743 mmHg 77%
    15:00 +10°C° 0.7 mm 7 mps 743 mmHg 80%
    16:00 +9°C° 0.7 mm 7 mps 743 mmHg 83%
    17:00 +9°C° 1.4 mm 7 mps 743 mmHg 85%
    18:00 +8°C° 1.4 mm 6 mps 743 mmHg 87%
    19:00 +8°C° 1.4 mm 6 mps 743 mmHg 89%
    20:00 +8°C° 0.3 mm 5 mps 743 mmHg 88%
    21:00 +7°C° 0.3 mm 4 mps 744 mmHg 87%
    22:00 +8°C° 0.3 mm 3 mps 744 mmHg 86%
    23:00 +8°C° 1.1 mm 5 mps 745 mmHg 88%

    25 January, Friday

    Time Temperature Precipitation Wind Pressure Humidity
    00:00 +8°C° 1.1 mm 7 mps 745 mmHg 89%
    01:00 +7°C° 1.1 mm 9 mps 746 mmHg 90%
    02:00 +7°C° 1.1 mm 8 mps 746 mmHg 88%
    03:00 +7°C° 1.1 mm 8 mps 746 mmHg 86%
    04:00 +8°C° 1.1 mm 7 mps 747 mmHg 85%
    05:00 +8°C° 0.7 mm 6 mps 747 mmHg 85%
    06:00 +8°C° 0.7 mm 6 mps 747 mmHg 85%
    07:00 +7°C° 0.7 mm 5 mps 748 mmHg 85%
    08:00 +8°C° 0.4 mm 5 mps 748 mmHg 82%
    09:00 +10°C° 0.4 mm 6 mps 748 mmHg 79%
    10:00 +11°C° 0.4 mm 6 mps 749 mmHg 75%
    11:00 +11°C° 0.8 mm 6 mps 748 mmHg 75%
    12:00 +11°C° 0.8 mm 6 mps 748 mmHg 75%
    13:00 +11°C° 0.8 mm 6 mps 748 mmHg 75%
    14:00 +10°C° 1.2 mm 5 mps 748 mmHg 77%
    15:00 +11°C° 1.2 mm 4 mps 748 mmHg 79%
    16:00 +11°C° 1.2 mm 4 mps 748 mmHg 81%
    17:00 +10°C° 0.4 mm 3 mps 748 mmHg 81%
    18:00 +9°C° 0.4 mm 2 mps 749 mmHg 81%
    19:00 +8°C° 0.4 mm 2 mps 749 mmHg 81%
    20:00 +9°C° 0.1 mm 1 mps 750 mmHg 81%
    21:00 +9°C° 0.1 mm 1 mps 750 mmHg 81%
    22:00 +9°C° 0.1 mm 1 mps 751 mmHg 81%
    23:00 +9°C° 0 mm 1 mps 751 mmHg 81%
    Show more